Starlink 34674

operational
NORAD ID: 65526 Int'l Des: 2025-200 Owner: SPXS Country: US Constellation: starlink
LEOCIRCULARRETROGRADE

About Starlink 34674

Description loading...

Live Position

Loading 3D Globe...

Upcoming Passes

Altitude History

Altitude vs Time

uPlot chart will show altitude changes over time

Two-Line Element Set

1 65526U 25200G 25303.17316170 .00098725 00000-0 24992-2 0 9991
2 65526 97.6040 10.8597 0001921 85.0097 275.1367 15.39365868 9480
Epoch: Oct 30, 2025 • Age: 13 hours

Current Status

Altitude 452.7 km
Velocity 7.65 km/s
Sub-Earth Point 40.03°N, 100.05°W
Launch Date Sep 6, 2025
Age 0.1 years
Type internet

Technical Details

Classification Payload
Mass 575.00 kg
Dry Mass 530.00 kg
Total Mass 575.00 kg
Length 0.30 m
Diameter 4.10 m
Span 29.00 m
Shape Box + pan
Manufacturer SPXS
Bus Type Starlink V2MO
Phase Status In Orbit
Owner/State SPXS/US

Large Constellations

Loading constellations...